CAPE
0 0 0 0 0 0 7 14 44 30 12 158 171 282 514 604 442 513 705 430 286 461 577 628 529 505 192 148 619 994 845 841
0 0 0 0 0 4 0 35 26 55 50 7 158 241 362 734 636 558 736 728 459 444 606 411 189 69 39 506 356 779 596 744
0 0 0 0 0 0 8 10 29 33 54 444 533 605 373 521 480 676 858 755 556 638 770 699 214 23 53 114 172 745 648 772
0 0 0 0 0 0 0 0 7 26 169 341 624 717 569 334 283 226 294 268 360 554 626 660 538 90 37 7 63 96 734 487
1 0 0 0 0 0 0 0 15 23 68 423 551 660 562 560 406 189 100 71 103 222 315 498 282 114 64 75 135 384 249 270
22 0 1 0 0 0 0 0 3 30 146 305 499 471 310 299 124 45 46 40 36 66 230 288 413 505 346 164 114 125 98 24
25 1 0 1 0 0 0 0 11 33 43 328 614 642 434 135 95 50 92 104 34 18 31 60 269 674 558 409 296 320 160 76
28 17 0 47 71 8 0 0 2 11 36 72 592 640 491 249 34 108 108 69 9 2 2 7 13 109 336 327 217 305 164 109
32 19 62 28 19 28 41 53 79 9 213 218 334 325 343 310 84 108 113 46 3 5 3 3 1 1 0 0 0 12 6 2
32 33 35 44 0 0 23 22 31 75 102 184 239 271 294 299 269 59 14 0 1 4 4 3 2 1 2 1 1 0 0 0
64 26 28 0 0 0 0 9 12 87 159 250 285 130 63 59 100 58 40 1 0 0 2 2 1 1 0 0 0 0 0 0
0 47 51 1 0 0 0 0 11 88 136 141 132 311 209 7 18 6 0 1 4 0 0 0 0 0 0 0 0 0 0 0
8 0 0 0 0 0 0 7 3 118 164 137 208 15 33 1 0 0 0 0 0 0 0 0 0 0 0 0 0 0 0 0
0 0 0 0 0 0 0 0 0 82 158 138 28 0 0 0 0 0 0 0 0 0 0 0 0 0 0 0 0 0 0 0
0 0 0 0 0 0 0 0 0 10 77 119 33 0 0 0 0 0 0 0 0 0 0 0 0 0 0 0 0 0 0 0
0 0 0 0 0 0 0 0 0 0 74 88 44 10 0 0 0 0 0 0 0 0 0 0 0 0 0 0 0 0 0 0
0 0 7 0 0 0 0 0 0 0 24 83 87 33 10 0 0 0 0 0 0 0 0 0 0 0 0 0 0 0 0 0
0 0 0 0 0 0 0 0 0 0 0 8 65 67 32 11 0 0 0 0 0 0 0 0 0 0 0 0 0 0 0 0
0 0 0 0 0 0 0 0 0 0 0 0 0 1 41 72 9 0 0 0 0 0 0 0 0 0 0 0 0 0 0 0
CIN
0 0 0 0 0 0 -7 -12 -4 -12 -22 -144 -172 -176 -128 -95 -106 -61 -36 -17 -15 -13 -31 -52 -70 -81 -84 -67 -21 -1 -1 -3
0 0 0 0 0 -8 0 -5 -4 -7 -3 -13 -93 -120 -252 -118 -112 -73 -45 -23 -26 -12 -36 -124 -137 -148 -98 -7 -51 -16 -18 -1
0 0 0 0 0 0 -4 -6 -6 -5 -5 -26 -46 -137 -234 -231 -235 -148 -57 -54 -72 -45 -13 -39 -130 -174 -146 -67 -54 -7 -25 -17
0 0 0 0 0 0 0 -1 -5 -13 -12 -201 -119 -152 -193 -286 -283 -299 -235 -215 -157 -94 -71 -67 -66 -136 -140 -88 -90 -113 -4 -30
-1 0 0 0 0 0 0 0 -4 -6 -7 -222 -210 -171 -195 -196 -216 -299 -357 -356 -289 -184 -132 -68 -93 -133 -119 -85 -36 -8 -39 -30
-9 0 -1 0 0 0 0 0 -3 -7 -17 -109 -186 -223 -272 -266 -350 -413 -397 -414 -400 -297 -182 -123 -53 -28 -36 -46 -56 -51 -56 -55
-21 -3 0 -1 0 0 0 0 -5 -8 -6 -23 -135 -171 -244 -353 -365 -407 -341 -321 -409 -396 -318 -242 -103 -4 -4 -10 -23 -32 -64 -67
-36 -20 0 -2 -9 -5 0 0 -1 -20 -4 -151 -136 -169 -214 -297 -442 -343 -332 -358 -465 0 0 -379 -321 -150 -37 -22 -44 -68 -30 -33
-8 -41 -13 -4 -13 -10 -25 -37 -11 -1 -43 -128 -185 -238 -233 -239 -339 -310 -303 -376 0 0 0 0 0 0 -1 0 0 -88 -81 0
-4 -15 -7 -63 0 0 -37 -70 -65 -76 -111 -141 -175 -179 -180 -204 -216 -323 -217 0 0 0 0 0 0 0 0 0 0 0 0 0
-1 -8 -11 -11 0 0 0 -14 -93 -89 -123 -135 -160 -217 -260 -274 -223 -246 -257 -1 0 -1 0 0 0 0 0 0 0 0 0 0
0 -5 -5 -5 0 0 0 -2 -108 -57 -86 -144 -166 -74 -81 -273 -257 -284 0 -1 -1 0 0 0 0 0 0 0 0 0 0 0
-9 0 -1 0 0 0 0 -48 -21 -59 -41 -68 -45 -174 -191 -82 0 0 0 0 0 0 0 0 0 0 0 0 0 0 0 0
0 0 0 0 0 0 0 0 -12 -68 -43 -44 -147 0 0 0 0 0 0 0 0 0 0 0 0 0 0 0 0 0 0 0
0 0 0 0 0 0 0 0 0 -102 -61 -70 -142 0 0 0 0 0 0 0 0 0 0 0 0 0 0 0 0 0 0 0
0 0 0 -32 0 0 0 0 0 0 -64 -69 -105 -144 0 0 0 0 0 0 0 0 0 0 0 0 0 0 0 0 0 0
0 0 -89 0 0 0 0 0 0 0 -91 -59 -83 -120 -140 0 0 0 0 0 0 0 0 0 0 0 0 0 0 0 0 0
0 0 0 0 0 0 0 0 0 0 0 -36 -73 -64 -96 -116 0 0 0 0 0 0 0 0 0 0 0 0 0 0 0 0
0 0 0 0 0 0 0 0 0 0 0 0 0 -4 -81 -41 -112 0 0 0 0 0 0 0 0 0 0 0 0 0 0 0
Wind_Speed
23 28 25 27 40 31 31 24 32 22 20 16 13 11 11 5 10 22 23 21 17 10 10 13 10 9 7 20 14 21 7 3
28 26 30 29 31 35 33 36 36 25 23 21 16 13 14 13 4 8 10 9 11 12 15 14 13 12 17 23 18 20 30 21
20 31 27 30 30 34 36 37 33 35 26 17 14 14 14 13 10 10 9 9 13 15 14 13 13 15 8 16 19 19 23 17
29 22 29 31 30 29 36 34 34 31 21 16 15 13 12 13 11 12 12 12 13 14 14 14 12 13 13 8 28 25 23 10
25 24 26 29 29 30 29 34 32 35 26 16 14 13 13 13 13 13 13 14 14 12 13 11 8 14 14 10 5 9 16 15
31 30 23 28 28 29 29 31 30 28 22 18 13 13 13 13 15 15 15 15 14 14 15 15 12 16 12 13 10 12 18 17
15 14 20 24 25 27 30 32 28 21 23 17 16 14 13 13 13 13 14 14 14 15 15 15 13 4 9 12 14 9 4 11
16 16 16 19 19 22 24 25 25 24 20 19 14 13 12 13 14 14 15 14 14 14 12 12 11 8 5 3 2 1 2 6
19 17 19 20 17 18 19 21 23 26 21 19 19 19 18 16 15 14 13 13 13 13 13 13 11 9 7 6 4 3 5 7
25 21 29 17 16 18 15 17 18 20 20 19 17 16 15 17 17 15 14 14 13 14 13 12 10 8 7 7 5 4 6 8
21 26 17 18 19 21 23 20 18 18 17 14 12 13 16 13 13 13 13 12 13 12 12 10 9 8 7 7 7 8 7 8
20 23 26 14 16 19 19 25 19 18 15 13 12 20 18 11 9 9 10 10 10 10 9 9 9 8 8 9 9 10 11 11
18 21 20 16 17 16 23 20 19 17 15 13 16 18 13 8 8 8 9 8 7 8 9 9 8 8 9 10 11 11 11 12
19 21 24 18 16 21 16 16 17 16 16 16 15 14 8 8 9 9 8 6 7 6 7 8 9 9 10 10 11 10 11 12
19 19 17 16 14 13 15 16 17 17 14 13 15 13 9 8 7 8 7 7 6 7 8 8 9 9 12 12 12 14 14 14
17 11 13 12 12 13 14 16 17 17 15 12 13 10 9 9 9 8 8 8 7 7 10 12 12 13 12 12 14 15 17 18
22 14 15 14 15 13 14 15 16 16 15 14 13 11 9 9 9 9 9 9 10 10 10 11 12 13 13 14 15 17 18 19
18 14 8 15 7 8 10 13 14 15 14 14 13 13 11 10 10 11 11 11 13 14 14 14 14 16 17 17 18 20 21 22
16 14 12 12 10 8 8 10 12 13 14 13 13 13 11 11 11 13 14 15 16 16 17 17 18 20 19 19 20 22 24 23
Wind_Direction
245 242 246 240 237 246 257 265 250 259 269 288 291 294 296 304 168 170 171 173 175 230 237 247 231 240 262 262 278 173 142 314
244 247 244 251 244 239 246 245 247 259 264 269 269 277 282 279 252 177 182 195 236 240 248 250 246 250 274 264 267 268 214 265
240 238 240 240 247 242 249 249 253 253 264 277 278 271 272 278 276 269 251 243 251 254 256 256 252 256 251 272 269 271 265 280
241 252 249 243 243 245 244 246 253 265 273 279 278 275 275 276 271 267 262 262 261 260 263 264 259 255 257 275 258 265 270 289
244 248 248 244 244 247 251 253 251 252 265 287 283 275 276 271 265 262 262 265 267 271 267 276 274 263 261 268 239 273 282 289
248 244 242 242 246 245 249 252 254 254 262 272 276 273 271 271 266 264 266 270 275 275 276 279 287 273 262 268 273 294 281 285
258 249 247 249 246 246 247 252 256 264 255 277 267 274 274 269 266 269 270 271 274 278 282 286 292 294 270 268 270 292 344 301
252 256 255 251 255 253 253 255 260 264 270 279 277 275 273 270 268 269 271 278 282 284 290 295 297 303 296 273 275 307 348 327
243 257 254 251 259 260 261 263 264 262 273 275 270 269 267 268 269 270 274 280 280 285 291 294 296 302 305 298 307 331 343 345
251 259 246 267 266 270 271 276 279 277 279 277 274 272 275 271 267 271 275 279 285 286 291 298 303 304 316 310 316 311 321 324
256 247 270 272 271 266 266 272 287 288 285 283 281 280 275 281 276 273 276 282 285 290 291 300 301 305 315 317 318 310 314 315
259 256 255 282 279 283 280 268 284 287 287 282 275 272 272 274 279 281 287 292 295 295 297 296 301 303 304 306 305 306 300 305
268 264 272 286 293 295 268 275 290 286 285 283 280 288 295 276 281 289 294 301 309 303 296 296 298 304 301 303 302 305 306 302
273 271 267 288 290 277 291 301 302 295 287 283 292 299 294 276 278 283 286 293 298 302 306 305 304 298 296 298 301 309 305 306
280 285 293 300 301 302 304 302 305 303 302 298 289 289 289 279 279 280 282 284 286 287 290 298 305 305 298 295 301 297 298 300
281 310 301 312 317 311 309 307 309 308 304 300 296 297 286 278 275 274 273 275 284 286 287 287 294 296 303 304 304 302 297 294
194 247 296 303 302 311 312 314 313 312 310 303 298 294 288 279 273 271 270 271 274 279 286 289 295 299 303 305 305 300 297 295
231 308 342 313 352 351 336 329 329 325 323 317 309 300 291 283 276 270 266 270 273 277 280 285 290 293 295 299 300 295 294 291
309 315 324 329 340 350 348 339 335 333 329 328 324 315 307 298 286 279 274 273 273 276 279 283 287 289 292 296 297 292 290 290